Regional Weather Roundup
Issued by NWS

Home | Current Version | Previous Version | Graphics & Text | Print | Product List | Glossary Off
Versions: 1 2 3 4 5 6 7 8 9 10 11 12 13 14 15 16 17 18 19 20 21 22 23 24 25 26 27 28 29 30 31 32 33 34 35 36 37 38 39 40 41 42 43 44 45 46 47 48 49 50

000
ASUS43 KDMX 011908
RWRIA

WEATHER ROUNDUP FOR IOWA
NATIONAL WEATHER SERVICE DES MOINES IA
200 PM CDT SAT OCT 01 2016

NOTE: "FAIR" INDICATES FEW OR NO CLOUDS BELOW 12,000 FEET WITH NO
SIGNIFICANT WEATHER AND/OR OBSTRUCTIONS TO VISIBILITY.

* - THESE STATIONS ARE NOT NWS STATIONS...THUS NOT UNDER NWS
QUALITY CONTROL.  THEY ALSO DO NOT REPORT WEATHER SUCH
AS PRECIPITATION OR FOG.

IAZ001>003-012>014-020>022-031>034-043>046-012000-
   NORTHWEST IOWA

CITY           SKY/WX    TMP DP  RH WIND       PRES   REMARKS
CARROLL *      CLOUDY    64  57  77 CALM      30.09F
CHEROKEE *     CLOUDY    66  58  75 CALM      30.10F
DENISON *      CLOUDY    64  57  77 E7        30.08F
LE MARS *      CLOUDY    68  55  64 CALM      30.11F
SHELDON *      CLOUDY    68  54  60 E6        30.09F
SIOUX CITY     CLOUDY    67  57  70 SE5       30.10F
SPENCER        CLOUDY    70  54  56 E9        30.09F
STORM LAKE *   CLOUDY    66  55  68 NE3       30.10F
$$

IAZ055>058-069>071-079>083-090>094-012000-
   SOUTHWEST IOWA

CITY           SKY/WX    TMP DP  RH WIND       PRES   REMARKS
ATLANTIC *     CLOUDY    63  57  82 NE7       30.10S HAZE
AUDUBON *      CLOUDY    64  57  77 CALM      30.10F
CLARINDA *       N/A     66  57  72 MISG      30.11F
COUNCIL BLFS * CLOUDY    66  55  68 CALM      30.10F HAZE
CRESTON *      CLOUDY    63  57  82 NW5       30.10F
HARLAN  *      CLOUDY    64  57  77 NE8       30.13F
LAMONI         CLOUDY    65  57  75 NW8       30.08F
RED OAK *      CLOUDY    64  57  77 CALM      30.10F HAZE
SHENANDOAH *   CLOUDY    64  57  77 N6        30.10F
$$

IAZ047>049-059>061-072>074-084-012000-
   CENTRAL IOWA

CITY           SKY/WX    TMP DP  RH WIND       PRES   REMARKS
AMES           CLOUDY    66  59  78 NE8       30.07F
ANKENY *         N/A    N/A N/A N/A MISG        N/A
BOONE *        CLOUDY    68  57  68 N8        30.06F
CHARITON *       N/A     64  57  77 NW7       30.07S
DES MOINES     CLOUDY    66  57  72 N3        30.06F
GRINNELL*      CLOUDY    64  56  77 N3        30.07F
KNOXVILLE *    CLOUDY    64  55  72 N7        30.05F
MARSHALLTOWN   CLOUDY    65  58  78 N9        30.06F
NEWTON *       CLOUDY    64  57  77 NE5       30.05F
PELLA *        CLOUDY    65  57  75 CALM      30.07F
PERRY *        CLOUDY    66  58  76 CALM      30.08F
$$

IAZ004>006-015-016-023>025-035-036-012000-
   NORTH CENTRAL IOWA

CITY           SKY/WX    TMP DP  RH WIND       PRES   REMARKS
ALGONA *       CLOUDY    68  55  64 NE9       30.08F
CLARION *      CLOUDY    66  57  72 NE6       30.08F
ESTHERVILLE    CLOUDY    67  56  67 NE10      30.09F
FORT DODGE *   CLOUDY    66  55  68 N6        30.08F
MASON CITY     CLOUDY    67  54  63 N8        30.09F
FOREST CITY *  CLOUDY    68  55  64 CALM      30.08F
WEBSTER CITY * CLOUDY    66  57  72 NE10      30.06S
IOWA FALLS *   CLOUDY    66  57  71 NE3       30.08F
$$

IAZ007>011-017>019-026>030-037>042-050>054-066-012000-
   NORTHEAST IOWA

CITY           SKY/WX    TMP DP  RH WIND       PRES   REMARKS
CEDAR RAPIDS   CLOUDY    63  61  93 N7        30.04F
CHARLES CITY * CLOUDY    66  55  68 NE8       30.08F
CLINTON *      CLOUDY    67  57  70 NE7       30.02F
DECORAH *      CLOUDY    63  57  82 VRB7      30.07F
DUBUQUE        CLOUDY    64  59  83 NE8       30.04F
MONTICELLO *   PTSUNNY   63  61  94 N6        30.04F FOG
OELWEIN *      CLOUDY    64  57  77 N7        30.06F
WATERLOO       CLOUDY    68  57  68 NE3       30.05F
$$

IAZ064-065-067-068-078-012000-
   EAST CENTRAL IOWA

CITY           SKY/WX    TMP DP  RH WIND       PRES   REMARKS
DAVENPORT      CLOUDY    66  59  78 CALM      30.02F
IOWA CITY      LGT RAIN  63  59  87 NW7       30.06F
MT. PLEASANT * CLOUDY    66  60  79 N6        30.03F
MUSCATINE *    CLOUDY    66  59  77 N5        30.03F
QUAD CITIES    CLOUDY    67  61  81 W6        30.01F
$$

IAZ062-063-075>077-085>089-095>099-012000-
   SOUTHEAST IOWA

CITY           SKY/WX    TMP DP  RH WIND       PRES   REMARKS
BURLINGTON     CLOUDY    64  60  87 NW6       30.02F
FAIRFIELD *    CLOUDY    66  57  72 N5        30.04F
FORT MADISON *   N/A     64  57  77 NW3       30.04F
KEOKUK *       CLOUDY    66  59  77 W6        30.03F
OSKALOOSA *    CLOUDY    66  56  70 N5        30.05F
OTTUMWA        CLOUDY    67  56  67 N7        30.05F
WASHINGTON *     N/A    N/A N/A N/A MISG        N/A
$$

ABBREVIATIONS USED IN REMARKS
   TC - TEMPERATURES IN CELSIUS
  WCI - WIND CHILL INDEX
   HX - HEAT INDEX
  VSB - VISIBILITY
$$





USA.gov is the U.S. government's official web portal to all federal, state and local government web resources and services.